Showing default

ORS 5 SENSORSAT, 42921

Orbit data source: Space-Track

ORS 5 SENSORSAT, 42921 is a payload satellite owned by DoD ORS (US) in LEO that was launched on Sat, 26 Aug 2017 UTC via an MINOTAUR IV launch vehicle from the Air Force Eastern Test Range (AFETR). Payload-class satellites include a variety of spacecraft equipped with specific instruments for various scientific and technological missions. These include communications satellites like Starlink; space stations such as the ISS; scientific satellites like the Hubble; Earth observation satellites from companies like Planet Labs, Umbra, and HawkEye 360; GPS; miniature CubeSats for education and research; and military/defense satellites.

Not visible in the next 10 days
Identifier
42921, 2017-050A
Orbit
LEO
Country
Flag of USUS
Related business
Manufacturer
MIT-LL
Mission
Operational Defense Early Warn
Bus & Motor
ORS-5, Unknown motor
Mass
~110 kg wet, ~110 kg dry
Launch date (UTC)
2017-08-26 (9 years ago)
Launch vehicle
MINOTAUR IV
Launch site
Air Force Eastern Test Range (AFETR)
Object type
Payload
Rocket body
Debris
Shape & HBR
Box + 2 Pan, 0.8 m
Radar Cross Section
1.080 m², Medium (>0.1 m² and < 1m²)

Expand to show TLE details & history
Last TLE update: 1 week ago

TLE from 1 week ago
0 ORS 5 SENSORSAT
1 42921U 17050A   26154.89301642  .00003078  00000-0  17137-3 0  9992
2 42921   0.0461 249.2398 0010569 219.8934 250.9812 15.00851393479041
Epoch: 2026-06-03T21:25Z
TLE epoch observation values (Epoch: 2026-06-03T21:25:56.618Z)
Latitude
0.04334°
Longitude
146.16893°
Altitude
563.504 km
Speed
7.582 km/s
True Right ascension
23h 59m 59s
True Declination
0° 02' 35"
Sunlit
Object was in daylight at epoch
Visualization orbit readout
Latitude
Unknown
Longitude
Unknown
Altitude
Unknown
Speed
Unknown
Apparent Right ascension
Unknown
Apparent Declination
Unknown
Sunlit
N/A
Visualization observer readout
Local Sidereal Time
12:37:42
Azimuth
Unknown
Elevation
Unknown
Doppler factor
Unknown
Orbital elements
Apogee altitude
577.966 km
Perigee altitude
563.278 km
Semi-major axis
6,948.759 km
Eccentricity
0.00106
Inclination
0.0461°
RAAN
249.2398°
Arg. of periapsis
219.8934°
True anomaly
250.86675°
Mean anomaly
250.9812°
Eccentric anomaly
250.92397°
Mean motion
3.74699 °/min
Orbital period
96.08 mins
BSTAR
0.00017137
Loading maneuver chart data...
Computing Atmospheric mass density...
Loading historical data...
Loading historical data...
Loading historical data...
Loading historical data...
Loading historical data...
Loading historical data...
Loading historical data...

Documentation

Showing up to 5 results
|